User: anonymous   Login
Location: Unspecified
(0.0000°N, 0.0000°E)
Time: 11:38:30
(UTC+02:00)
Language:

deb Ariane - Orbit

View from above orbital plane
View from above orbital plane
View from above satellite
View from above satellite

Ground track
Ground track

The orbit data is extracted from the following two-line orbital elements,

1 25668U 92060E   14294.55215801  .00772766 -34812-6  11078-2 0  7000
2 25668 007.4616 075.0107 5170550 178.5562 251.8934 05.53399650253209
Epoch (UTC): 21 October 2014 13:15:06
Eccentricity: 0.5170550
inclination: 7.4616°
perigee height: 142 km
apogee height: 14104 km
right ascension of ascending node: 75.0107°
argument of perigee: 178.5562°
revolutions per day: 5.53399650
mean anomaly at epoch: 251.8934°
orbit number at epoch: 25320

The dashed part of the orbit path shows where the satellite is in the earth's shadow,  

DLR